Temperature
14 14 14 14 14 14 14 14 14 14 15 16 16 16 16 16 16 15 15 15 15 14 14 14 15 15 15 15 15 15 15 15 15 16 16 16 16 16
14 14 14 14 14 14 14 14 14 14 15 15 15 15 15 15 15 14 14 14 14 14 14 14 14 14 14 14 14 14 14 14 15 15 15 15 15 15
14 14 14 14 14 14 14 14 14 14 14 14 14 14 14 14 14 14 14 14 14 14 13 13 13 13 13 13 13 14 14 14 14 14 14 15 15 15
14 14 14 14 14 14 14 14 14 14 14 14 13 13 14 13 13 13 13 13 13 13 12 12 12 12 13 13 13 13 13 14 14 14 14 14 14 14
13 13 13 13 14 14 14 14 14 14 14 14 13 13 13 13 12 12 12 12 12 12 12 12 12 12 12 12 12 13 13 13 13 13 13 14 14 14
13 13 13 13 13 13 13 14 14 14 14 13 13 12 12 12 12 12 11 11 11 11 11 11 11 12 12 12 12 12 12 12 13 13 13 13 13 13
13 13 13 13 13 13 13 13 13 13 13 13 12 12 11 11 11 11 11 11 11 11 11 11 11 11 11 11 11 11 11 12 12 12 12 12 12 12
12 12 12 13 13 12 12 13 13 13 13 12 12 11 11 11 11 11 11 11 11 11 11 10 10 11 11 11 10 10 10 10 11 11 11 11 11 11
12 12 12 12 12 12 12 12 12 12 12 12 12 11 11 11 11 11 12 12 12 11 11 10 10 10 10 10 10 10 9 9 9 9 9 10 10 9
12 12 12 12 12 11 11 11 11 11 11 11 11 11 11 11 11 12 12 12 12 12 11 11 10 10 10 10 9 9 9 9 8 8 8 9 8 8
11 12 12 12 12 11 11 11 11 11 11 11 11 11 11 11 11 12 12 12 12 12 12 11 10 10 10 9 9 9 8 8 8 8 8 8 8 7
11 11 12 12 11 11 11 11 11 11 11 11 11 11 11 12 12 12 12 12 12 12 12 11 11 10 9 9 9 9 8 8 8 8 7 7 7 7
11 11 11 11 11 11 11 11 11 11 11 11 11 11 11 11 12 12 12 12 12 12 12 12 11 11 10 10 9 9 9 8 8 8 7 7 7 7
10 11 11 11 11 11 11 11 11 11 11 11 11 11 11 11 11 11 12 12 12 12 12 12 11 11 11 10 10 9 9 9 8 8 7 7 7 7
9 10 11 11 11 11 11 11 11 11 11 11 11 11 10 10 10 10 11 11 11 11 11 11 11 11 11 11 10 10 9 9 8 8 8 7 7 7
9 10 11 11 11 11 11 11 11 11 11 11 11 10 10 10 10 10 10 10 11 11 11 10 10 11 11 10 10 10 9 9 8 8 8 8 7 7
8 9 10 10 10 10 11 11 11 11 11 11 10 10 10 10 9 9 10 10 10 10 10 10 10 10 10 10 10 9 9 9 8 8 8 7 7 7
8 9 10 10 10 10 10 10 11 11 11 10 10 10 10 10 10 10 10 10 10 9 9 9 9 9 10 10 10 9 9 8 8 8 7 7 7 7
8 9 10 10 10 10 10 10 10 10 10 10 10 10 10 10 10 10 11 11 10 10 10 10 10 9 9 9 9 9 9 9 8 8 8 7 7 7
9 10 10 11 11 11 11 10 10 10 10 10 10 10 10 10 10 11 11 11 11 10 10 10 10 10 10 10 10 9 9 9 9 8 8 8 7 7
9 10 11 11 11 11 11 11 10 10 10 10 10 10 10 10 10 11 11 11 11 11 10 10 10 10 10 10 10 10 9 9 9 9 8 8 7 7
9 10 11 11 12 12 11 11 10 10 10 10 10 10 11 11 11 11 11 11 11 11 11 10 10 10 10 10 10 10 10 10 9 9 9 8 8 8
9 10 11 12 12 12 11 11 11 10 10 11 10 11 11 11 11 11 11 11 11 11 11 10 10 10 10 10 10 10 10 10 9 9 9 9 8 8
Wind_Speed
7 8 7 7 7 7 7 7 7 6 5 3 2 4 6 8 10 11 11 14 15 15 15 15 15 16 16 16 16 16 16 16 16 16 14 11 6 4
6 7 7 7 7 6 7 7 8 7 5 2 2 6 8 9 11 12 13 16 16 16 16 16 16 16 17 17 17 17 17 17 17 18 18 18 16 14
7 7 7 7 6 6 6 7 7 7 6 2 3 6 9 11 10 11 12 11 13 17 17 17 17 17 18 18 17 17 18 18 18 18 18 18 18 17
6 6 7 7 7 7 6 7 7 7 6 7 5 5 8 10 10 10 9 11 12 16 18 18 17 18 18 18 18 17 17 18 17 17 17 17 17 17
4 5 5 6 7 7 7 6 6 6 7 9 7 6 5 7 9 10 11 9 11 15 17 17 17 18 17 17 17 17 18 18 18 17 17 17 18 17
3 3 3 4 6 7 6 4 3 5 9 11 10 8 6 6 8 10 10 8 8 11 12 14 17 18 17 17 17 18 18 19 19 20 20 20 20 19
3 2 2 4 5 5 3 1 3 7 9 11 11 9 7 6 6 7 9 8 8 9 9 9 9 9 12 14 16 17 18 19 19 19 19 19 19 19
4 4 5 4 5 7 9 9 8 9 10 10 10 10 7 5 4 6 8 10 7 7 8 7 7 8 6 10 12 15 16 17 17 17 16 15 15 16
5 5 5 7 6 6 8 11 13 14 12 10 11 9 6 5 4 5 7 8 6 8 8 8 8 8 6 10 12 13 14 15 15 14 13 12 10 11
7 7 8 9 7 7 7 8 9 9 10 9 9 8 6 4 4 6 7 7 6 7 9 8 8 8 8 8 11 12 13 13 14 13 12 11 9 7
9 9 11 10 11 10 8 9 9 8 10 14 13 12 11 8 6 5 6 6 6 5 5 5 7 7 5 5 8 11 10 11 10 10 10 10 11 9
7 9 13 13 14 11 9 10 10 9 10 12 10 10 8 8 10 7 4 3 6 4 3 4 8 6 4 4 5 8 8 8 8 6 5 5 7 6
7 9 9 16 15 11 9 8 11 11 9 9 7 6 5 5 7 8 6 3 5 5 3 3 5 5 5 5 5 6 7 6 7 6 7 4 1 3
4 7 11 18 15 12 8 12 15 12 7 7 6 5 5 7 7 7 7 6 7 8 6 5 3 2 3 5 5 5 5 5 4 2 3 6 6 4
5 6 15 18 15 10 13 17 13 7 6 6 6 5 7 9 7 6 6 6 6 8 10 8 5 3 2 5 5 4 4 4 3 3 2 1 3 4
2 8 17 16 11 12 12 10 7 5 6 6 7 8 7 6 6 5 5 5 6 5 6 9 7 6 4 5 5 4 3 3 4 4 1 3 1 4
4 6 9 9 9 9 8 7 5 5 5 7 9 8 6 6 5 6 5 6 6 6 4 4 5 6 6 4 4 3 3 3 4 2 1 2 2 3
6 7 9 10 10 10 9 7 5 5 6 7 7 7 6 5 5 5 5 6 7 6 5 4 4 3 2 4 3 2 3 3 2 1 2 2 3 2
8 7 8 8 9 9 8 7 6 6 6 7 6 6 6 6 6 4 3 5 6 6 6 6 5 5 6 5 2 2 3 3 1 1 1 1 2 1
6 5 6 7 8 8 8 8 7 7 6 6 6 6 6 6 6 5 4 5 6 6 5 4 3 2 2 2 4 4 6 4 4 2 2 2 3 2
5 3 4 5 7 8 8 8 9 7 7 6 6 7 6 6 6 5 5 6 5 5 6 5 4 3 1 1 1 4 5 9 8 5 4 3 3 2
5 3 3 4 5 7 8 9 9 7 7 6 6 6 6 6 6 7 7 5 3 3 8 6 4 3 2 3 3 2 5 6 10 14 11 8 4 3
5 4 3 4 6 7 9 9 10 8 6 6 7 6 6 5 6 7 8 6 5 6 8 7 6 5 5 5 4 3 3 5 4 4 5 15 21 20
Wind_Direction
289 291 287 282 278 271 264 254 253 259 252 213 132 113 115 110 130 113 109 108 106 103 100 96 92 88 85 82 78 75 73 71 69 66 60 51 36 251
286 287 289 286 281 275 267 257 243 239 244 199 152 143 129 120 112 108 110 111 109 108 104 100 96 92 88 85 82 79 76 73 71 69 64 59 55 54
298 302 302 298 292 284 272 259 246 230 224 179 120 130 122 120 114 114 115 109 110 108 105 101 97 93 89 86 84 82 79 76 72 70 67 64 60 58
303 312 313 313 307 297 284 264 244 222 192 159 136 129 123 123 122 119 116 111 110 110 107 103 98 93 90 87 84 81 78 76 73 71 69 68 66 64
298 312 321 325 316 307 292 272 246 217 166 147 137 126 116 122 121 118 115 114 112 114 106 101 99 96 92 89 86 83 80 77 75 74 73 72 70 68
263 288 323 336 329 315 305 282 228 164 144 140 135 132 122 122 125 127 126 129 131 126 108 108 104 97 95 93 89 85 82 79 77 77 76 75 74 72
223 209 74 56 27 357 334 340 136 133 135 135 135 133 133 137 138 143 142 140 127 127 126 128 119 106 98 91 88 88 86 83 82 81 80 78 77 75
204 173 140 119 85 60 62 71 97 124 131 133 137 139 137 138 137 146 143 142 142 157 146 142 130 113 105 100 103 98 93 90 87 84 82 81 80 78
191 180 168 137 133 109 88 81 80 88 104 120 128 128 134 143 146 159 164 161 148 160 148 132 123 113 112 123 126 117 110 103 97 91 88 88 91 91
189 174 152 151 152 145 122 101 91 92 109 114 118 117 125 147 172 164 150 139 130 136 136 131 134 128 128 137 150 139 126 115 105 93 80 69 71 104
189 170 160 158 157 155 133 117 106 98 101 113 118 121 121 116 123 131 133 134 132 129 126 126 136 132 137 147 167 164 149 139 128 111 88 63 52 89
186 165 165 157 160 160 145 137 130 129 127 122 120 125 118 97 83 82 87 139 145 136 127 120 146 143 146 157 162 174 179 180 174 161 132 83 59 70
192 170 161 155 158 158 151 146 145 141 136 132 128 123 113 96 81 70 56 57 139 126 110 95 146 154 142 153 167 181 180 176 189 202 208 216 195 71
243 183 159 160 160 159 153 150 154 151 145 143 140 141 126 101 90 82 68 55 83 98 77 61 93 113 135 146 147 153 154 154 147 143 180 190 197 173
270 205 159 157 153 149 151 156 165 172 156 152 147 131 114 113 109 99 91 79 70 79 71 52 48 54 69 122 131 136 140 141 119 88 23 277 187 176
240 158 146 147 145 137 147 161 182 181 158 148 126 116 117 128 139 144 139 125 100 83 70 63 51 51 65 70 100 109 107 120 114 96 346 298 257 122
141 160 150 146 143 145 157 173 182 153 140 125 124 131 146 162 162 160 150 135 123 125 119 97 80 84 82 63 90 92 93 92 107 113 299 322 6 95
172 182 158 153 153 155 162 165 158 146 135 129 136 151 165 160 144 150 160 150 145 145 145 144 131 117 110 50 49 94 97 89 57 19 23 8 352 73
190 188 160 157 157 159 161 159 157 147 137 140 153 158 151 140 140 159 163 138 135 139 148 159 171 179 195 184 224 277 147 138 126 32 13 334 307 299
201 186 161 161 159 160 161 160 153 146 149 157 160 153 148 150 156 162 152 140 133 134 142 147 127 98 59 109 153 207 218 183 168 191 239 266 263 249
201 202 170 164 159 156 153 146 143 151 161 157 151 150 156 156 160 165 134 127 146 159 147 124 128 141 105 10 216 171 196 218 211 197 206 238 261 263
205 205 191 171 158 150 140 140 146 156 160 154 148 157 163 165 167 152 137 150 188 158 124 129 158 174 204 245 260 194 182 202 234 238 235 227 218 237
208 213 220 182 152 144 143 149 154 157 164 158 153 171 173 164 151 144 149 174 185 151 140 154 174 200 220 217 226 243 219 204 211 198 233 236 236 243
Height
1464 1462 1461 1459 1458 1457 1457 1457 1458 1457 1457 1457 1459 1460 1461 1463 1466 1468 1470 1473 1475 1477 1479 1480 1481 1482 1482 1483 1483 1484 1485 1486 1488 1489 1490 1493 1495 1497
1459 1457 1455 1453 1452 1451 1450 1450 1451 1452 1452 1453 1454 1455 1458 1460 1463 1466 1469 1471 1473 1476 1477 1479 1480 1481 1482 1482 1483 1483 1484 1484 1485 1486 1487 1489 1490 1492
1455 1452 1450 1448 1447 1445 1444 1444 1444 1446 1447 1449 1451 1452 1455 1458 1461 1465 1468 1470 1472 1475 1477 1478 1480 1481 1481 1482 1483 1484 1484 1484 1485 1485 1486 1487 1489 1490
1450 1448 1446 1444 1442 1440 1439 1438 1438 1439 1442 1444 1447 1450 1453 1457 1460 1464 1467 1469 1472 1474 1476 1478 1480 1481 1482 1483 1484 1484 1485 1485 1485 1485 1486 1487 1488 1489
1446 1444 1442 1440 1438 1436 1434 1432 1432 1434 1437 1440 1444 1448 1452 1456 1460 1464 1467 1470 1472 1475 1477 1479 1481 1482 1483 1484 1485 1485 1485 1486 1486 1486 1487 1487 1488 1489
1441 1440 1439 1437 1435 1432 1430 1428 1428 1430 1433 1437 1441 1447 1451 1456 1460 1463 1467 1471 1473 1476 1479 1481 1482 1484 1485 1487 1487 1487 1487 1487 1488 1487 1487 1488 1489 1490
1437 1437 1436 1435 1433 1430 1428 1426 1427 1428 1431 1435 1440 1445 1451 1456 1460 1464 1467 1472 1476 1478 1480 1482 1484 1486 1487 1489 1489 1489 1489 1489 1489 1489 1489 1489 1489 1490
1433 1433 1433 1432 1431 1429 1428 1427 1426 1428 1430 1434 1439 1444 1450 1455 1460 1464 1468 1472 1476 1480 1481 1483 1486 1487 1489 1490 1491 1491 1491 1491 1491 1490 1490 1490 1490 1490
1429 1430 1431 1430 1430 1430 1429 1428 1429 1430 1433 1435 1440 1445 1451 1456 1460 1464 1469 1472 1475 1479 1482 1484 1487 1489 1491 1492 1492 1493 1493 1492 1492 1491 1491 1491 1490 1490
1424 1426 1428 1428 1430 1431 1431 1432 1432 1434 1436 1440 1444 1448 1453 1458 1461 1465 1469 1473 1477 1480 1482 1484 1487 1489 1491 1492 1493 1494 1494 1494 1493 1493 1492 1491 1491 1491
1419 1422 1424 1426 1428 1430 1432 1433 1435 1437 1440 1444 1447 1451 1455 1459 1463 1466 1470 1473 1476 1480 1483 1484 1486 1488 1491 1493 1493 1494 1494 1494 1494 1494 1493 1492 1492 1491
1415 1418 1421 1423 1426 1429 1432 1435 1437 1439 1442 1446 1450 1454 1457 1461 1463 1466 1469 1472 1475 1479 1482 1484 1485 1487 1490 1492 1493 1494 1494 1494 1494 1494 1493 1493 1492 1491
1410 1414 1417 1421 1424 1428 1432 1436 1438 1441 1444 1447 1451 1454 1458 1460 1462 1464 1467 1471 1474 1477 1480 1482 1484 1486 1488 1490 1492 1493 1493 1494 1494 1494 1493 1493 1492 1491
1404 1410 1414 1418 1422 1427 1431 1435 1439 1442 1445 1448 1451 1454 1456 1459 1461 1464 1467 1470 1472 1475 1478 1481 1483 1485 1487 1488 1491 1492 1493 1494 1493 1493 1493 1492 1491 1490
1398 1404 1411 1416 1420 1425 1429 1434 1439 1443 1446 1449 1451 1454 1455 1457 1460 1463 1466 1469 1471 1474 1477 1480 1482 1484 1486 1487 1490 1492 1493 1493 1493 1492 1492 1491 1490 1489
1394 1400 1407 1413 1418 1423 1428 1433 1438 1442 1445 1448 1450 1452 1455 1457 1460 1462 1465 1468 1470 1473 1476 1479 1481 1484 1486 1488 1490 1491 1493 1493 1492 1492 1491 1490 1490 1488
1392 1398 1405 1411 1415 1421 1426 1432 1437 1441 1444 1447 1449 1451 1455 1457 1460 1463 1465 1467 1469 1471 1474 1477 1481 1483 1486 1488 1490 1491 1492 1492 1491 1491 1490 1489 1488 1487
1395 1400 1404 1409 1414 1419 1425 1431 1435 1439 1443 1445 1448 1451 1454 1457 1460 1463 1465 1468 1470 1472 1474 1477 1480 1483 1486 1488 1490 1490 1490 1490 1489 1489 1488 1487 1486 1485
1395 1401 1405 1409 1414 1419 1425 1430 1434 1438 1441 1444 1448 1451 1454 1457 1460 1463 1465 1468 1471 1473 1475 1478 1480 1482 1484 1485 1487 1488 1488 1488 1487 1487 1486 1485 1484 1483
1395 1400 1405 1410 1415 1419 1424 1429 1433 1437 1440 1444 1448 1451 1454 1457 1459 1462 1465 1468 1471 1473 1475 1478 1480 1481 1482 1483 1484 1486 1486 1486 1485 1484 1483 1482 1482 1480
1394 1400 1405 1410 1415 1420 1424 1428 1432 1436 1440 1444 1447 1450 1453 1456 1459 1462 1465 1468 1470 1473 1474 1476 1478 1479 1481 1482 1483 1483 1484 1484 1483 1482 1481 1479 1478 1477
1395 1400 1406 1410 1415 1419 1424 1428 1431 1435 1439 1443 1446 1450 1453 1456 1459 1461 1464 1467 1470 1472 1473 1474 1476 1477 1479 1480 1481 1481 1481 1481 1480 1479 1478 1477 1476 1473
1396 1401 1406 1411 1416 1420 1423 1427 1431 1435 1439 1443 1446 1449 1452 1455 1458 1461 1463 1466 1468 1470 1472 1473 1475 1476 1477 1479 1479 1479 1479 1478 1478 1476 1475 1474 1472 1471